Weather History for KJST - July, 2013

Change the Weather History Date:

Friday, July 5, 2013

  Actual Average Record
Temperature  
Mean Temperature 74 °F 69 °F  
Max Temperature 82 °F 78 °F 101 °F (1911)
Min Temperature 66 °F 60 °F 44 °F (1940)
Degree Days  
Heating Degree Days 0 1  
Month to date heating degree days 0 5  
Since 1 June heating degree days 63 84  
Since 1 July heating degree days 0 5  
Cooling Degree Days 9 4  
Month to date cooling degree days 35 20  
Year to date cooling degree days 144 113  
Since 1 June cooling degree days 104 95  
Growing Degree Days 23 (Base 50)    
Moisture  
Dew Point 64 °F    
Average Humidity 72    
Maximum Humidity 90    
Minimum Humidity 54    
Precipitation  
Precipitation 0.17 in 0.12 in 2.20 in (1905)
Month to date precipitation 0.46 0.60  
Year to date precipitation 8.70 17.24  
Sea Level Pressure  
Sea Level Pressure 30.20 in    
Wind  
Wind Speed 7 mph (SSW)    
Max Wind Speed 23 mph    
Max Gust Speed 30 mph    
Visibility 9 miles    
Events Rain , Thunderstorm    
T = Trace of Precipitation, MM = Missing Value Source: NWS Daily Summary

Daily Weather History Graph

Daily Weather History Graph

Search for Another Location

Airport or City:

Trip Planner

Search our weather history database for the weather conditions in past years. The results will help you decide how hot, cold, wet, or windy it might be!

Date:

Astronomy

Jul. 05, 2013 Rise Set
Actual Time 5:51 AM EDT 8:48 PM EDT
Civil Twilight 5:18 AM EDT 9:20 PM EDT
Nautical Twilight 4:37 AM EDT 10:02 PM EDT
Astronomical Twilight 3:49 AM EDT 10:50 PM EDT
Moon 3:49 AM EDT (7/5) 6:41 PM EDT (7/5)
Length of Visible Light 16h 02m
Length of Day
14h 56m
Waning Crescent, 6% of the Moon is Illuminated
Jul 5
Waning Crescent
Jul 8
New
Jul 15
First Quarter
Jul 22
Full
Jul 29
Last Quarter

Hourly Weather History & Observations

Time (EDT) Temp. Heat Index Dew Point Humidity Pressure Visibility Wind Dir Wind Speed Gust Speed Precip Events Conditions
12:54 AM 70.0 °F - 64.9 °F 84% 30.21 in 10.0 mi South 6.9 mph - N/A   Clear
1:54 AM 69.1 °F - 64.0 °F 84% 30.21 in 10.0 mi South 8.1 mph - N/A   Clear
2:54 AM 68.0 °F - 63.0 °F 84% 30.20 in 10.0 mi SSW 5.8 mph - N/A   Clear
3:54 AM 66.9 °F - 62.1 °F 84% 30.19 in 10.0 mi SSW 3.5 mph - N/A   Clear
4:54 AM 66.9 °F - 62.1 °F 84% 30.19 in 10.0 mi SSW 5.8 mph - N/A   Clear
5:54 AM 66.0 °F - 62.1 °F 87% 30.21 in 10.0 mi South 3.5 mph - N/A   Clear
6:54 AM 68.0 °F - 63.0 °F 84% 30.20 in 10.0 mi South 4.6 mph - N/A   Partly Cloudy
7:54 AM 69.1 °F - 63.0 °F 81% 30.21 in 10.0 mi SSW 4.6 mph - N/A   Mostly Cloudy
8:54 AM 72.0 °F - 63.0 °F 73% 30.22 in 10.0 mi SW 6.9 mph - N/A   Clear
9:24 AM 73.4 °F - 64.4 °F 73% 30.26 in 10.0 mi SW 8.1 mph - N/A   Partly Cloudy
9:54 AM 75.0 °F - 63.0 °F 66% 30.21 in 10.0 mi SW 9.2 mph 18.4 mph N/A   Clear
10:54 AM 77.0 °F - 63.0 °F 62% 30.21 in 10.0 mi SW 11.5 mph - N/A   Scattered Clouds
11:54 AM 78.1 °F - 63.0 °F 60% 30.21 in 10.0 mi SW 11.5 mph - N/A   Clear
12:54 PM 78.1 °F - 63.0 °F 60% 30.21 in 10.0 mi SW 12.7 mph 19.6 mph N/A   Partly Cloudy
1:54 PM 79.0 °F - 64.0 °F 60% 30.19 in 10.0 mi West 9.2 mph - N/A   Partly Cloudy
2:54 PM 80.1 °F 81.5 °F 63.0 °F 56% 30.18 in 10.0 mi SW 9.2 mph - N/A   Mostly Cloudy
3:54 PM 79.0 °F - 64.0 °F 60% 30.17 in 10.0 mi SW 5.8 mph - N/A   Overcast
4:49 PM 77.0 °F - 66.2 °F 69% 30.20 in 10.0 mi SSE 8.1 mph - N/A Thunderstorm Overcast
4:54 PM 77.0 °F - 66.0 °F 69% 30.16 in 10.0 mi South 6.9 mph - N/A Thunderstorm Mostly Cloudy
5:04 PM 78.8 °F - 66.2 °F 65% 30.20 in 10.0 mi SSW 6.9 mph - N/A   Overcast
5:54 PM 79.0 °F - 64.9 °F 62% 30.14 in 10.0 mi WNW 8.1 mph - N/A Thunderstorm Mostly Cloudy
6:54 PM 69.1 °F - 64.0 °F 84% 30.17 in 10.0 mi WSW 3.5 mph - 0.00 in Rain , Thunderstorm Light Thunderstorms and Rain
7:02 PM 71.6 °F - 64.4 °F 78% 30.20 in 10.0 mi Variable 4.6 mph - 0.00 in   Mostly Cloudy
7:15 PM 71.6 °F - 64.4 °F 78% 30.20 in 10.0 mi South 9.2 mph - 0.00 in Thunderstorm Mostly Cloudy
7:30 PM 71.6 °F - 64.4 °F 78% 30.20 in 10.0 mi South 9.2 mph - 0.00 in   Mostly Cloudy
7:46 PM 69.8 °F - 66.2 °F 88% 30.21 in 1.8 mi South 13.8 mph 23.0 mph 0.12 in Rain Heavy Rain
7:54 PM 68.0 °F - 66.0 °F 93% 30.17 in 1.2 mi South 8.1 mph - 0.17 in Rain Light Rain
7:58 PM 69.8 °F - 66.2 °F 88% 30.21 in 4.0 mi South 4.6 mph - 0.00 in Rain Light Rain
8:54 PM 69.1 °F - 66.0 °F 90% 30.18 in 10.0 mi South 4.6 mph - 0.00 in   Partly Cloudy
9:54 PM 69.1 °F - 66.0 °F 90% 30.19 in 10.0 mi South 4.6 mph - N/A   Partly Cloudy
10:54 PM 70.0 °F - 66.0 °F 87% 30.19 in 10.0 mi SSW 5.8 mph - N/A   Clear
11:54 PM 69.1 °F - 66.0 °F 90% 30.19 in 10.0 mi SSW 5.8 mph - N/A   Clear